Probability
0 0 0 0 0 0 0 0 0 0 0 0 0 0 0 0 0 0 0 0 0 0 0 0 0 0 0 0 0 0 0 0 0 0 0 0 0 0 0 0 0 0 0
0 0 0 0 0 0 0 0 0 0 0 0 0 0 0 0 0 0 0 0 0 0 0 0 0 0 0 0 0 0 0 0 0 0 0 0 0 0 0 0 0 0 0
0 0 0 0 0 0 0 0 0 0 0 0 0 0 0 0 0 0 0 0 0 0 0 0 0 0 0 0 0 0 0 0 0 0 0 0 0 0 0 0 0 0 0
0 0 0 0 0 0 0 0 0 0 0 0 0 0 0 0 0 0 0 0 0 0 0 0 0 0 0 0 0 0 0 0 0 0 0 0 0 0 0 0 0 0 0
0 0 0 0 0 0 0 0 0 0 0 0 0 0 0 0 0 0 0 0 0 0 0 0 0 0 0 0 0 0 0 0 0 0 0 0 0 0 0 0 0 0 0
0 0 0 0 0 0 0 0 0 0 0 0 0 0 0 0 0 0 0 0 0 0 0 0 0 0 0 0 0 0 0 0 0 0 0 0 0 0 0 0 0 0 0
0 0 0 0 0 0 0 0 0 0 0 0 0 0 0 0 0 0 0 0 0 0 0 0 0 0 0 0 0 0 0 0 0 0 0 0 0 0 0 0 0 0 0
0 0 0 0 0 0 0 0 0 0 0 0 0 0 0 0 0 0 0 0 0 0 0 0 0 0 0 0 0 0 0 0 0 0 0 0 0 0 0 0 0 0 0
0 0 0 0 0 0 0 0 0 0 0 0 0 0 0 0 0 0 0 0 0 0 0 0 0 0 0 0 0 0 0 0 0 0 0 0 0 0 0 0 0 0 0
0 0 0 0 0 0 0 0 0 0 0 0 0 0 0 0 0 0 0 0 0 0 0 0 0 0 0 0 0 0 0 0 0 0 0 0 0 0 0 0 0 0 0
0 0 0 0 0 0 0 0 0 0 0 0 0 0 0 0 0 0 0 0 0 0 0 0 0 0 0 0 0 0 0 0 0 0 0 0 0 0 0 0 0 0 0
0 0 0 0 0 0 0 0 0 0 0 0 0 0 0 0 0 0 0 0 0 0 0 0 0 0 0 0 0 0 0 0 0 0 0 0 0 0 0 0 0 0 0
0 0 0 0 0 0 0 0 0 0 0 0 0 0 0 0 0 0 0 0 0 0 0 0 0 0 0 0 0 0 0 0 0 0 0 0 0 0 0 0 0 0 0
0 0 0 0 0 0 0 0 0 0 0 0 0 0 0 0 0 0 0 0 0 0 0 0 0 0 0 0 0 0 0 0 0 0 0 0 0 0 0 0 0 0 0
0 0 0 0 0 0 0 0 0 0 0 0 0 0 0 0 0 0 0 0 0 0 0 0 0 0 0 0 0 0 0 0 0 0 0 0 0 0 0 0 0 0 0
0 0 0 0 0 0 0 0 0 0 0 0 0 0 0 0 0 0 0 0 0 0 0 0 0 0 0 0 0 0 0 0 0 0 0 0 0 0 0 0 0 0 0
0 0 0 0 0 0 0 0 0 0 0 0 0 0 0 0 0 0 0 0 0 0 0 0 0 0 0 0 0 0 0 0 0 0 0 0 0 0 0 0 0 0 0
0 0 0 0 0 0 0 0 0 0 0 0 0 0 0 0 0 0 0 0 0 0 0 0 0 0 0 0 0 0 0 0 0 0 0 0 0 0 0 0 0 0 0
0 0 0 0 0 0 0 0 0 0 0 0 0 0 0 0 0 0 0 0 0 0 0 0 0 0 0 0 0 0 0 0 0 0 0 0 0 0 0 0 0 0 0
0 0 0 0 0 0 0 0 0 0 0 0 0 0 0 0 0 0 0 0 0 0 0 0 0 0 0 0 0 0 0 0 0 0 0 0 0 0 0 0 0 0 0
0 0 0 0 0 0 0 0 0 0 0 0 0 0 0 0 0 0 0 0 0 0 0 0 0 0 0 0 0 0 0 0 0 0 0 0 0 0 0 0 0 0 0
0 0 0 0 0 0 0 0 0 0 0 0 0 0 0 0 0 0 0 0 0 0 0 0 0 0 0 0 0 0 0 0 0 0 0 0 0 0 0 0 0 0 0
0 0 0 0 0 0 0 0 0 0 0 0 0 0 0 0 0 0 0 0 0 0 0 0 0 0 0 0 0 0 0 0 0 0 0 0 0 0 0 0 0 0 0
0 0 0 0 0 0 0 0 0 0 0 0 0 0 0 0 0 0 0 0 0 0 0 0 0 0 0 0 0 0 0 0 0 0 0 0 0 0 0 0 0 0 0
0 0 0 0 0 0 0 0 0 0 0 0 0 0 0 0 0 0 0 0 0 0 0 0 0 0 0 0 0 0 0 0 0 0 0 0 0 0 0 0 0 0 0
0 0 0 0 0 0 0 0 0 0 0 0 0 0 0 0 0 0 0 0 0 0 0 0 0 0 0 0 0 0 0 0 0 0 0 0 0 0 0 0 0 0 0
Height
5676 5676 5675 5674 5673 5672 5671 5669 5668 5666 5665 5663 5662 5661 5660 5659 5658 5657 5656 5655 5654 5653 5651 5650 5649 5649 5648 5648 5647 5647 5647 5647 5648 5650 5649 5649 5649 5649 5650 5651 5652 5653 5654
5666 5665 5664 5663 5661 5660 5659 5657 5656 5654 5653 5651 5650 5649 5648 5647 5646 5645 5644 5643 5641 5640 5639 5638 5637 5636 5636 5635 5634 5634 5634 5634 5635 5636 5636 5635 5635 5635 5636 5637 5638 5639 5640
5654 5653 5652 5651 5649 5648 5646 5645 5644 5642 5640 5639 5637 5636 5635 5634 5633 5632 5631 5630 5629 5627 5626 5625 5624 5623 5623 5622 5622 5622 5621 5621 5621 5621 5622 5621 5621 5621 5622 5623 5624 5625 5626
5642 5641 5640 5638 5637 5635 5634 5632 5631 5629 5628 5626 5625 5623 5622 5621 5620 5619 5618 5616 5615 5614 5613 5612 5611 5610 5610 5609 5609 5608 5608 5607 5607 5607 5608 5608 5607 5607 5608 5609 5610 5611 5612
5630 5629 5627 5625 5624 5622 5621 5619 5618 5616 5614 5613 5611 5610 5608 5607 5606 5605 5604 5603 5602 5601 5600 5599 5598 5598 5597 5596 5596 5595 5594 5594 5593 5593 5594 5594 5594 5594 5595 5595 5596 5597 5598
5618 5617 5615 5613 5611 5609 5608 5606 5605 5603 5601 5599 5598 5596 5595 5594 5592 5591 5590 5590 5589 5588 5588 5587 5586 5585 5584 5584 5583 5582 5581 5580 5580 5580 5580 5580 5580 5580 5581 5581 5582 5583 5585
5606 5604 5602 5600 5598 5596 5595 5593 5591 5590 5588 5586 5585 5584 5582 5581 5580 5579 5577 5577 5576 5576 5575 5575 5574 5573 5572 5571 5570 5569 5569 5568 5567 5567 5566 5567 5567 5567 5568 5568 5568 5568 5569
5593 5591 5589 5587 5585 5583 5582 5580 5579 5577 5576 5574 5573 5571 5570 5568 5567 5566 5565 5565 5564 5564 5563 5563 5562 5561 5560 5559 5558 5558 5557 5556 5555 5554 5554 5553 5553 5553 5554 5554 5553 5554 5555
5580 5578 5576 5574 5573 5571 5569 5568 5566 5565 5564 5562 5560 5559 5558 5556 5555 5554 5553 5553 5552 5552 5552 5551 5550 5550 5549 5547 5547 5546 5545 5544 5542 5541 5540 5540 5540 5540 5539 5539 5539 5540 5541
5568 5565 5563 5562 5560 5559 5557 5556 5554 5553 5551 5550 5548 5547 5546 5544 5543 5542 5542 5542 5541 5541 5540 5539 5538 5538 5537 5535 5535 5534 5533 5532 5530 5529 5528 5527 5526 5526 5526 5525 5525 5526 5526
5555 5552 5551 5549 5548 5546 5545 5544 5542 5541 5540 5538 5537 5536 5534 5533 5532 5531 5530 5530 5530 5530 5529 5528 5527 5526 5525 5524 5523 5522 5520 5519 5518 5517 5516 5515 5514 5513 5512 5512 5512 5512 5513
5542 5540 5538 5537 5535 5534 5533 5532 5531 5530 5529 5528 5526 5525 5523 5522 5521 5520 5520 5519 5519 5519 5518 5517 5516 5515 5514 5513 5511 5510 5509 5508 5506 5505 5504 5503 5501 5500 5500 5499 5499 5499 5499
5529 5528 5526 5525 5524 5523 5522 5521 5520 5519 5518 5517 5516 5514 5513 5512 5511 5510 5509 5509 5508 5508 5507 5506 5505 5504 5503 5501 5500 5499 5497 5496 5495 5494 5492 5491 5489 5488 5487 5487 5486 5486 5486
5518 5516 5515 5514 5513 5512 5511 5510 5509 5508 5507 5506 5505 5504 5503 5502 5501 5500 5499 5499 5498 5498 5497 5495 5494 5493 5491 5490 5489 5487 5486 5485 5484 5482 5481 5480 5478 5477 5476 5475 5474 5474 5473
5506 5505 5504 5503 5502 5501 5500 5499 5498 5497 5496 5496 5495 5494 5494 5493 5491 5490 5489 5489 5488 5487 5486 5485 5484 5482 5481 5479 5478 5476 5475 5474 5472 5471 5470 5469 5467 5466 5464 5463 5462 5462 5461
5494 5493 5492 5492 5491 5490 5489 5488 5487 5487 5486 5485 5485 5484 5483 5482 5481 5481 5480 5479 5478 5477 5476 5475 5474 5472 5471 5469 5468 5466 5464 5463 5461 5460 5459 5458 5456 5455 5453 5452 5450 5449 5449
5483 5482 5481 5481 5480 5479 5479 5478 5478 5477 5476 5475 5475 5474 5473 5472 5471 5471 5470 5469 5468 5467 5467 5465 5464 5462 5460 5459 5457 5455 5454 5452 5451 5450 5449 5447 5446 5444 5442 5441 5439 5438 5437
5472 5471 5471 5470 5469 5469 5469 5468 5468 5467 5467 5466 5465 5464 5463 5462 5462 5461 5460 5459 5459 5457 5456 5455 5454 5452 5450 5449 5447 5446 5444 5443 5441 5440 5439 5437 5435 5434 5432 5430 5429 5427 5426
5462 5461 5460 5460 5459 5459 5459 5459 5458 5458 5457 5457 5456 5455 5454 5453 5452 5451 5450 5450 5449 5448 5447 5445 5444 5442 5441 5439 5437 5436 5435 5434 5432 5430 5429 5427 5425 5424 5422 5420 5418 5416 5415
5451 5450 5450 5450 5449 5449 5449 5449 5449 5448 5448 5447 5446 5446 5445 5444 5443 5442 5441 5440 5439 5438 5437 5436 5434 5433 5431 5430 5428 5427 5426 5424 5423 5421 5419 5418 5416 5414 5412 5410 5408 5406 5404
5440 5440 5439 5439 5439 5439 5439 5439 5439 5439 5438 5438 5437 5436 5435 5435 5434 5433 5432 5431 5430 5429 5428 5426 5425 5424 5422 5421 5419 5418 5417 5415 5413 5412 5410 5408 5406 5404 5402 5400 5398 5396 5394
5429 5429 5429 5429 5429 5429 5429 5429 5429 5429 5429 5428 5428 5427 5426 5426 5425 5424 5423 5422 5421 5420 5418 5417 5416 5414 5413 5411 5410 5409 5407 5406 5404 5402 5401 5399 5397 5395 5393 5391 5388 5386 5384
5418 5418 5418 5418 5418 5419 5419 5419 5419 5419 5419 5419 5418 5418 5418 5417 5417 5416 5415 5414 5412 5411 5409 5408 5407 5405 5404 5402 5401 5400 5398 5397 5395 5393 5392 5390 5388 5386 5384 5382 5379 5377 5375
5407 5408 5408 5408 5408 5408 5409 5409 5409 5409 5409 5409 5409 5409 5409 5408 5408 5407 5406 5405 5403 5402 5400 5399 5398 5397 5395 5394 5392 5391 5389 5387 5386 5384 5383 5381 5379 5377 5375 5373 5371 5368 5366
5397 5397 5398 5398 5398 5399 5399 5399 5400 5400 5400 5400 5400 5400 5399 5399 5398 5397 5396 5395 5394 5393 5391 5390 5389 5388 5387 5385 5383 5382 5380 5378 5377 5376 5374 5372 5370 5368 5366 5364 5362 5359 5357
5388 5388 5388 5388 5389 5389 5389 5390 5390 5390 5390 5390 5390 5390 5389 5389 5388 5388 5386 5385 5384 5383 5382 5381 5380 5379 5378 5376 5375 5373 5371 5370 5368 5367 5365 5364 5361 5359 5357 5355 5353 5351 5348
Wind_Speed
40 41 41 42 43 43 43 44 44 44 44 45 45 45 45 45 45 45 44 45 45 45 45 45 45 45 45 46 45 45 45 46 46 46 46 47 48 50 51 51 51 50 50
41 42 43 43 44 45 45 45 45 45 45 45 45 45 45 45 45 45 45 44 44 45 45 46 45 45 45 45 45 45 46 45 46 46 46 47 48 49 50 50 50 49 49
42 43 44 44 45 45 46 46 46 46 46 46 45 45 45 45 46 46 45 45 45 45 45 45 45 45 45 45 45 45 46 46 46 46 46 46 47 48 48 49 49 49 49
44 44 45 45 45 45 46 46 46 46 46 45 45 45 45 46 46 46 45 45 45 45 45 45 45 45 44 44 44 45 46 46 47 46 46 46 46 46 46 47 48 48 48
43 44 44 45 46 46 46 46 46 46 46 46 46 46 46 46 46 46 46 45 45 45 45 44 44 44 44 44 44 45 45 45 45 45 46 46 45 45 45 46 47 47 47
43 43 44 44 45 45 45 46 46 46 46 45 45 45 45 44 45 45 45 44 44 44 43 43 43 43 43 43 43 43 43 44 44 44 45 45 45 45 45 45 46 46 46
43 44 44 44 44 44 45 45 45 44 44 44 44 44 44 44 44 44 43 43 42 41 41 41 41 41 41 41 41 42 42 42 43 43 43 43 44 44 44 45 46 46 46
44 45 45 44 44 44 44 44 43 42 42 42 43 43 43 43 42 42 42 41 41 40 40 40 40 40 40 39 39 40 40 41 42 42 42 42 43 43 44 45 45 45 45
44 45 45 44 44 44 43 42 41 41 41 41 41 41 41 41 41 40 40 39 38 38 38 38 38 38 39 39 39 38 38 38 39 40 41 42 42 43 43 44 43 43 43
44 44 44 44 43 42 42 41 40 40 40 39 39 39 39 39 39 38 38 37 37 37 37 37 37 37 38 38 38 38 38 38 39 39 40 41 41 41 41 42 42 42 42
44 44 44 42 41 41 41 40 39 39 38 38 37 38 37 37 36 36 36 36 36 36 36 36 36 36 37 37 37 38 38 38 39 39 39 39 39 40 41 42 42 42 42
43 42 41 40 40 39 39 39 38 38 37 37 37 36 36 35 35 35 35 34 35 35 34 34 35 35 36 36 36 37 37 37 37 37 37 38 38 39 40 41 41 41 42
41 39 38 38 38 38 38 37 37 37 36 36 35 34 34 34 34 34 34 33 33 33 33 34 34 34 35 35 35 35 36 36 36 36 36 37 37 37 38 39 40 40 41
40 38 37 37 37 37 37 37 37 36 36 35 34 33 33 33 33 33 33 33 33 33 33 33 33 33 34 34 34 34 35 35 35 35 35 35 35 36 37 38 38 39 39
38 38 37 37 36 36 36 36 35 35 34 34 33 33 33 32 32 32 32 32 32 32 32 32 32 32 32 32 33 33 34 35 34 34 34 34 34 35 36 37 38 38 39
36 36 36 36 35 35 35 34 34 34 33 33 33 33 33 32 32 32 31 31 31 31 31 31 31 31 31 31 32 32 33 33 33 33 33 33 34 35 35 36 36 37 38
35 35 34 34 34 34 33 33 33 32 32 32 32 32 32 31 30 30 30 30 30 30 30 30 30 30 31 31 31 31 31 31 32 32 32 32 33 34 34 34 35 36 37
35 34 33 33 32 32 32 31 31 31 31 32 31 31 31 30 30 30 30 30 30 30 30 30 30 30 30 31 30 30 30 30 31 31 31 31 32 33 34 34 35 36 36
34 34 33 32 32 32 31 31 31 31 31 31 31 30 30 30 30 29 29 29 29 29 30 30 30 30 30 30 30 30 29 30 30 30 30 30 32 33 33 34 35 35 36
33 33 33 32 32 32 31 31 31 31 30 30 30 30 30 30 29 28 28 28 29 29 29 30 30 30 30 30 30 30 29 30 30 29 29 30 31 32 32 33 34 34 35
34 33 33 33 32 31 31 31 31 31 30 30 30 29 29 28 27 27 27 28 28 29 29 30 30 30 30 30 30 30 29 30 30 29 29 30 30 31 32 33 33 34 34
34 33 32 32 31 31 31 31 30 30 30 30 29 28 27 27 27 27 27 27 28 28 29 30 29 29 29 29 29 29 30 30 30 30 30 30 30 31 31 32 32 32 32
34 33 33 32 31 31 31 30 30 29 29 29 28 27 27 26 26 27 27 27 28 28 28 28 28 27 28 28 28 28 29 29 29 29 29 29 30 30 30 30 30 30 30
33 33 32 31 31 30 30 30 30 29 29 28 28 28 28 27 28 28 29 29 29 29 28 28 28 28 28 29 28 28 28 28 28 28 29 29 29 30 30 29 30 30 29
32 31 30 30 29 29 29 29 29 29 29 29 29 29 29 29 29 29 30 30 30 29 29 28 28 28 28 28 28 28 28 27 27 28 28 29 29 29 29 29 29 29 29
30 30 29 29 29 29 29 30 29 29 29 30 30 30 30 30 31 31 31 31 30 29 29 28 28 28 28 28 27 27 27 27 27 27 28 28 29 29 29 29 29 29 29
Wind_Direction
269 272 273 274 275 276 277 277 277 278 278 278 278 279 278 279 279 279 279 279 279 278 277 276 275 275 274 273 273 272 272 272 271 269 269 269 267 265 264 265 266 267 266
271 272 274 275 276 276 277 278 278 279 279 279 278 278 278 278 278 279 278 279 279 278 277 276 276 275 275 274 273 272 272 271 271 270 270 270 268 266 265 265 266 267 266
273 274 274 275 276 277 277 278 279 279 280 280 279 278 278 278 278 278 278 278 278 278 277 276 275 274 274 274 273 272 272 271 271 271 271 270 269 268 266 265 265 266 266
275 275 275 276 277 277 277 278 279 279 280 280 280 279 279 278 278 278 278 278 278 278 277 277 276 275 274 274 273 272 272 272 271 270 270 269 269 268 267 266 266 266 266
276 277 277 277 277 278 278 279 280 280 280 280 280 280 279 279 279 278 278 277 277 278 277 277 276 276 275 274 274 274 273 272 272 271 271 269 269 268 267 268 268 267 267
277 278 278 279 279 279 279 280 281 281 280 280 280 279 279 280 280 279 278 277 277 277 277 276 276 276 276 275 275 274 274 273 272 272 271 269 269 269 269 269 269 269 269
278 278 279 279 279 279 280 281 281 281 280 280 279 279 278 279 279 278 278 278 277 277 277 276 276 276 276 276 276 275 274 274 273 273 271 270 270 269 270 270 270 269 270
280 280 280 279 279 280 281 281 280 281 281 280 280 279 279 278 278 278 277 278 277 276 276 276 276 276 276 277 277 276 275 275 275 274 273 273 272 271 272 271 271 270 270
280 280 280 280 279 280 280 280 281 281 281 281 280 279 279 279 278 278 277 277 276 276 277 276 276 277 277 277 277 277 276 276 276 275 274 274 273 273 273 272 270 269 269
281 281 280 280 280 280 280 280 281 281 280 280 279 279 279 279 278 277 277 276 275 276 277 276 277 277 277 277 277 278 277 277 277 276 276 276 274 273 273 272 271 271 270
282 281 281 280 281 281 281 281 281 281 280 280 280 280 280 279 279 277 277 276 276 276 277 277 277 278 278 278 278 279 278 278 278 277 277 277 276 275 274 273 272 272 271
282 282 281 280 280 280 281 281 281 281 281 280 280 280 280 279 279 278 277 277 278 278 278 279 278 278 280 280 279 279 279 279 279 279 278 278 278 276 275 274 273 273 272
281 280 279 279 279 280 281 281 281 281 280 280 280 280 280 280 279 278 278 278 279 280 281 281 280 279 280 281 280 280 279 279 280 281 280 280 279 278 276 274 274 275 274
279 278 278 279 279 280 280 281 280 280 279 279 279 279 279 280 279 278 278 278 279 281 281 282 282 281 281 281 281 280 281 281 280 280 280 280 280 279 278 276 276 275 275
277 277 278 278 279 279 280 280 279 279 278 278 278 278 279 280 280 279 279 279 279 281 282 282 282 283 282 281 281 281 282 281 280 280 280 280 280 280 280 278 277 276 276
278 277 277 277 277 278 278 277 277 277 276 277 277 278 279 279 280 279 278 279 279 280 282 282 283 283 283 282 283 283 283 282 281 281 280 281 282 282 281 280 279 278 278
278 277 276 275 276 277 277 276 276 275 275 275 277 278 279 279 279 278 278 278 279 280 281 282 283 284 284 284 285 284 283 283 282 282 282 282 283 284 283 282 282 281 280
277 276 275 275 275 275 275 276 275 275 275 276 277 278 278 278 278 278 278 279 280 280 281 282 284 285 285 285 285 284 284 284 285 284 283 284 285 286 285 284 284 283 282
275 274 273 273 274 274 274 275 276 277 276 276 277 279 278 277 277 278 279 280 281 281 281 282 284 286 286 286 285 285 285 285 286 286 285 287 288 288 287 286 286 286 284
274 273 272 272 274 273 272 273 274 275 276 276 277 278 278 278 278 279 280 281 282 282 282 283 284 285 286 286 286 286 286 286 287 287 287 288 289 289 289 289 289 288 286
273 272 272 272 273 272 271 272 272 273 274 275 276 277 278 278 278 279 280 282 284 284 284 284 285 286 286 286 286 286 286 287 288 287 287 288 290 291 291 291 292 290 289
272 272 272 272 271 269 269 270 272 273 274 274 275 276 277 278 279 280 282 284 285 285 284 285 285 285 286 286 286 286 286 287 288 287 287 288 290 292 293 293 293 293 291
271 271 271 270 269 269 268 270 272 272 272 273 273 274 276 278 279 282 284 285 286 286 285 285 285 285 286 286 287 287 287 287 288 288 288 290 291 293 294 294 294 294 293
272 270 268 267 268 268 269 270 271 271 271 271 272 274 276 278 280 282 283 284 285 285 284 283 284 285 286 287 288 288 288 288 289 289 290 290 291 293 294 294 294 294 293
271 269 267 266 266 268 269 270 270 270 271 272 272 273 276 278 280 281 282 283 283 282 282 282 284 286 287 288 289 289 289 289 290 291 292 292 293 293 293 294 294 295 294
270 268 267 267 267 268 269 270 270 270 271 273 273 274 276 278 280 281 282 282 281 281 281 282 283 285 288 288 289 290 291 290 291 292 293 294 294 294 295 294 295 295 294